Location: Johnson City
(36.3130°N, 82.3540°W)
Time: 10:40:17
(UTC-05:00)

X-37B - Pass Details

Date: 03 December 2021
Orbit: 334 x 337 km, 45.0° (Epoch: 11 January)

Event Time Altitude Azimuth Distance (km) Brightness Sun altitude
Rises 18:31:16 0° 203° (SSW) 2,085 4.9 -15.2°
Reaches altitude 10° 18:33:44 10° 180° (S) 1,254 3.4 -15.7°
Enters shadow 18:35:16 16° 148° (SSE) 984 2.5 -16.0°
